CZ-6A DEB, 60671

Orbit data source: Space-Track

CZ-6A DEB, 60671 is space debris in LEO originally from a launch on Tue, 06 Aug 2024 UTC launched from the Taiyaun Space Center, China (TSC). Debris objects in space refer to the collection of defunct objects orbiting the Earth. Examples of debris include non-operational satellites, rocket bodies, and fragments generated from explosions, collisions, or faulty payload assembly.

Loading next visibility...
Identifier
60671, 2024-140BY
Orbit
LEO
Country
Flag of CNCN / PRC
Related business
Manufacturer
SAST
Mission
Spacecraft
Bus & Motor
Unknown
Mass
Unknown
Launch date (UTC)
2024-08-06 (2 years ago)
Launch vehicle
Unknown
Launch site
Taiyaun Space Center, China (TSC)
Object type
Payload
Rocket body
Debris
Shape & HBR
Unknown shape, 0.1 m
Radar Cross Section
Medium (>0.1 m² and <1 m²)

Expand to show TLE details & history
Last TLE update: 13 hours ago

TLE from 13 hours ago
0 CZ-6A DEB
1 60671U 24140BY  26171.31347713  .00000461  00000-0  28075-3 0  9993
2 60671  89.0465 280.7647 0204728 222.9615 135.5419 13.94897721 94796
Epoch: 2026-06-20T07:31Z
TLE epoch observation values (Epoch: 2026-06-20T07:31:24.424Z)
Latitude
0.00001°
Longitude
-100.61696°
Altitude
1,022.545 km
Speed
7.286 km/s
True Right ascension
18h 43m 03s
True Declination
0° 00' 00"
Sunlit
Object was in full shadow at epoch
Visualization orbit readout
Latitude
Unknown
Longitude
Unknown
Altitude
Unknown
Speed
Unknown
Apparent Right ascension
Unknown
Apparent Declination
Unknown
Sunlit
N/A
Visualization observer readout
Local Sidereal Time
07:20:48
Azimuth
Unknown
Elevation
Unknown
Doppler factor
Unknown
Orbital elements
Apogee altitude
1,057.68 km
Perigee altitude
759.325 km
Semi-major axis
7,286.639 km
Eccentricity
0.02047
Inclination
89.0465°
RAAN
280.7647°
Arg. of periapsis
222.9615°
True anomaly
137.15531°
Mean anomaly
135.5419°
Eccentric anomaly
136.35155°
Mean motion
3.48941 °/min
Orbital period
103.17 mins
BSTAR
0.00028075
Loading maneuver chart data...
Computing Atmospheric mass density...
Loading historical data...
Loading historical data...
Loading historical data...
Loading historical data...
Loading historical data...
Loading historical data...
Loading historical data...

Documentation

Showing up to 5 results
|